カタログに戻る

STARLINK-38110

運用中通信VLEO
NORAD 100021·PAYLOAD·🇺🇸 United States

打ち上げ Jul 14, 2026 から Vandenberg Space Force Base

Loading…

次のパス (今後24時間)

TLE

最新Source: Space-Track

元期: Sep 14, 2026, 22:54 UTC

1 A0021U 26160W   26257.95455728 -.01337919  00000-0 -15944-1 0  9994
2 A0021  70.0013 210.4031 0003556 273.0790  86.9996 15.63904538 11120

AllMySatでSTARLINK-38110をリアルタイム追跡

Download on the App Store